Weather History for Gdansk Airport, Poland

Change the Weather History Date:

Friday, March 1, 2013

  Actual Average Record
Temperature  
Mean Temperature 34 °F -  
Max Temperature 37 °F 40 °F 44 °F (1997)
Min Temperature 32 °F 26 °F 5 °F (2011)
Degree Days  
Heating Degree Days 30    
Moisture  
Dew Point 29 °F    
Average Humidity 80    
Maximum Humidity 100    
Minimum Humidity 60    
Precipitation  
Precipitation 0.00 in - - ()
Sea Level Pressure  
Sea Level Pressure 29.91 in    
Wind  
Wind Speed 13 mph ()    
Max Wind Speed 22 mph    
Max Gust Speed -    
Visibility 5.3 miles    
Events Snow    
Averages and records for this station are not official NWS values.
T = Trace of Precipitation, MM = Missing Value Source: Averaged Metar Reports

Daily Weather History Graph

Daily Weather History Graph

Search for Another Location

Airport:

Trip Planner

Search our weather history database for the weather conditions in past years. The results will help you decide how hot, cold, wet, or windy it might be!

Date:

Astronomy

Mar. 01, 2013 Rise Set
Actual Time 6:35 AM CET 5:22 PM CET
Civil Twilight 5:59 AM CET 5:58 PM CET
Nautical Twilight 5:18 AM CET 6:39 PM CET
Astronomical Twilight 4:36 AM CET 7:21 PM CET
Moon 10:25 PM CET (3/1) 7:27 AM CET (3/1)
Length of Visible Light 11h 59m
Length of Day
10h 47m
Waning Gibbous, 85% of the Moon is Illuminated
Mar 1
Waning Gibbous
Mar 4
Last Quarter
Mar 11
New
Mar 19
First Quarter
Mar 27
Full

Hourly Weather History & Observations

Time (CET) Temp. Windchill Dew Point Humidity Pressure Visibility Wind Dir Wind Speed Gust Speed Precip Events Conditions
12:00 AM 33.8 °F 23.2 °F 33.8 °F 100% 29.86 in 1.9 mi West 17.3 mph - N/A   Light Drizzle
12:30 AM 33.8 °F 23.9 °F 33.8 °F 100% 29.86 in 1.9 mi West 15.0 mph - N/A   Light Drizzle
1:00 AM 35.6 °F 26.2 °F 33.8 °F 93% 29.86 in 1.9 mi West 15.0 mph - N/A   Light Drizzle
1:30 AM 35.6 °F 26.2 °F 33.8 °F 93% 29.86 in 1.6 mi West 15.0 mph - N/A   Mostly Cloudy
2:00 AM 35.6 °F 26.6 °F 33.8 °F 93% 29.86 in 1.9 mi West 13.8 mph - N/A   Mostly Cloudy
2:30 AM 35.6 °F 25.2 °F 35.6 °F 100% 29.86 in 2.5 mi West 18.4 mph - N/A   Mostly Cloudy
3:00 AM 35.6 °F 25.9 °F 33.8 °F 93% 29.86 in 2.5 mi WNW 16.1 mph - N/A   Mostly Cloudy
3:30 AM 35.6 °F 25.9 °F 33.8 °F 93% 29.86 in 2.5 mi WNW 16.1 mph - N/A   Mostly Cloudy
4:00 AM 35.6 °F 26.2 °F 33.8 °F 93% 29.83 in 2.5 mi WNW 15.0 mph - N/A   Mostly Cloudy
4:30 AM 35.6 °F 27.5 °F 32.0 °F 87% 29.83 in 6.2 mi West 11.5 mph - N/A   Scattered Clouds
5:00 AM 33.8 °F 25.8 °F 32.0 °F 93% 29.86 in 6.2 mi West 10.4 mph - N/A   Partly Cloudy
5:30 AM 33.8 °F 26.4 °F 32.0 °F 93% 29.86 in 6.2 mi West 9.2 mph - N/A   Partly Cloudy
6:00 AM 33.8 °F 25.8 °F 30.2 °F 87% 29.86 in 6.2 mi West 10.4 mph - N/A   Partly Cloudy
6:30 AM 33.8 °F 26.4 °F 30.2 °F 87% 29.86 in - West 9.2 mph - N/A   Clear
7:00 AM 32.0 °F 25.6 °F 30.2 °F 93% 29.86 in - West 6.9 mph - N/A   Clear
7:30 AM 32.0 °F 25.6 °F 30.2 °F 93% 29.86 in - West 6.9 mph - N/A   Clear
8:00 AM 32.0 °F 24.8 °F 30.2 °F 93% 29.89 in - West 8.1 mph - N/A   Clear
8:30 AM 33.8 °F 26.4 °F 28.4 °F 81% 29.89 in - West 9.2 mph - N/A   Clear
9:00 AM 33.8 °F 25.8 °F 28.4 °F 81% 29.89 in - West 10.4 mph - N/A   Clear
9:30 AM 35.6 °F 27.5 °F 28.4 °F 75% 29.89 in - West 11.5 mph - N/A   Clear
10:00 AM 35.6 °F 26.6 °F 28.4 °F 75% 29.89 in - WNW 13.8 mph - N/A   Clear
10:30 AM 35.6 °F 26.2 °F 28.4 °F 75% 29.89 in 6.2 mi WNW 15.0 mph - N/A   Partly Cloudy
11:00 AM 35.6 °F 24.5 °F 26.6 °F 70% 29.89 in 6.2 mi WNW 20.7 mph - N/A   Scattered Clouds
11:30 AM 35.6 °F 24.5 °F 26.6 °F 70% 29.89 in 6.2 mi WNW 20.7 mph - N/A   Scattered Clouds
12:00 PM 35.6 °F 24.8 °F 24.8 °F 65% 29.89 in 6.2 mi WNW 19.6 mph - N/A   Partly Cloudy
12:30 PM 35.6 °F 25.5 °F 26.6 °F 70% 29.89 in 6.2 mi WNW 17.3 mph - N/A   Partly Cloudy
1:00 PM 35.6 °F 25.5 °F 24.8 °F 65% 29.92 in 6.2 mi WNW 17.3 mph - N/A   Partly Cloudy
1:30 PM 37.4 °F 27.2 °F 24.8 °F 60% 29.92 in 6.2 mi NW 19.6 mph - N/A   Partly Cloudy
2:00 PM 35.6 °F 24.2 °F 24.8 °F 65% 29.92 in 6.2 mi WNW 21.9 mph - N/A   Partly Cloudy
2:30 PM 35.6 °F 24.8 °F 23.0 °F 60% 29.92 in 6.2 mi NW 19.6 mph - N/A   Partly Cloudy
3:00 PM 35.6 °F 25.5 °F 23.0 °F 60% 29.92 in 6.2 mi NW 17.3 mph - N/A   Partly Cloudy
3:30 PM 35.6 °F 25.9 °F 23.0 °F 60% 29.92 in 6.2 mi NW 16.1 mph - N/A   Partly Cloudy
4:00 PM 35.6 °F 26.6 °F 23.0 °F 60% 29.95 in 6.2 mi NW 13.8 mph - N/A   Partly Cloudy
4:30 PM 35.6 °F 27.1 °F 24.8 °F 65% 29.95 in 6.2 mi WNW 12.7 mph - N/A   Partly Cloudy
5:00 PM 35.6 °F 27.5 °F 24.8 °F 65% 29.95 in 6.2 mi WNW 11.5 mph - N/A   Mostly Cloudy
5:30 PM 35.6 °F 27.1 °F 24.8 °F 65% 29.95 in 6.2 mi WNW 12.7 mph - N/A   Mostly Cloudy
6:00 PM 33.8 °F 25.3 °F 26.6 °F 75% 29.95 in 6.2 mi WNW 11.5 mph - N/A   Mostly Cloudy
6:30 PM 33.8 °F 25.8 °F 24.8 °F 70% 29.98 in 6.2 mi WNW 10.4 mph - N/A   Partly Cloudy
7:00 PM 33.8 °F 25.8 °F 26.6 °F 75% 29.98 in 6.2 mi WNW 10.4 mph - N/A   Mostly Cloudy
7:30 PM 33.8 °F 27.0 °F 26.6 °F 75% 29.98 in 6.2 mi West 8.1 mph - N/A   Scattered Clouds
8:00 PM 33.8 °F 25.3 °F 28.4 °F 81% 29.98 in 6.2 mi WNW 11.5 mph - N/A Snow Light Snow Showers
8:30 PM 33.8 °F 23.9 °F 28.4 °F 81% 29.98 in 6.2 mi WNW 15.0 mph - N/A Snow Light Snow Showers
9:00 PM 33.8 °F 24.3 °F 30.2 °F 87% 30.01 in 6.2 mi WNW 13.8 mph - N/A Snow Light Snow Showers
9:30 PM 32.0 °F 24.2 °F 30.2 °F 93% 30.01 in 6.2 mi WNW 9.2 mph - N/A   Mostly Cloudy
10:00 PM 32.0 °F 25.6 °F 30.2 °F 93% 30.01 in 6.2 mi West 6.9 mph - N/A   Mostly Cloudy
10:30 PM 33.8 °F 24.8 °F 30.2 °F 87% 30.01 in 6.2 mi NW 12.7 mph - N/A   Mostly Cloudy
11:00 PM 33.8 °F 24.3 °F 30.2 °F 87% 30.01 in 6.2 mi NW 13.8 mph - N/A   Mostly Cloudy
11:30 PM 33.8 °F 24.3 °F 30.2 °F 87% 30.04 in - NW 13.8 mph - N/A   Clear